Regional Weather Roundup
Issued by NWS

Home | Current Version | Previous Version | Graphics & Text | Print | Product List | Glossary On
Versions: 1 2 3 4 5 6 7 8 9 10 11 12 13 14 15 16 17 18 19 20 21 22 23 24 25 26 27 28 29 30 31 32 33 34 35 36 37 38 39 40 41 42 43 44 45 46 47 48 49 50
169
ASUS44 KJAN 231110
RWRMS

MISSISSIPPI HOURLY WEATHER ROUNDUP
NATIONAL WEATHER SERVICE JACKSON MS
600 AM CDT WED APR 23 2014

NOTE: "FAIR: INDICATES FEW OR NO CLOUDS BELOW 12,000 FEET WITH NO
SIGNIFICANT WEATHER AND/OR OBSTRUCTIONS TO VISIBILITY.

MSZ001>002-007>008-010>013-018>021-025>028-034>036-231200-
NORTHWEST MISSISSIPPI

CITY           SKY/WX    TMP DP  RH WIND       PRES   REMARKS
CLARKSDALE       N/A     48  45  87 CALM      30.02R
CLEVELAND      FAIR      54  48  81 NE5       29.99R
GREENWOOD      CLEAR     50  46  86 NE7       29.99R
GREENVILLE     CLEAR     50  49  96 NE3       29.98R
GRENADA        FAIR      46  43  87 CALM      30.01R
OLIVE BRANCH   CLEAR     46  45  93 CALM      30.03R
OXFORD         FAIR      41  39  93 CALM      30.01F
TUNICA         SUNNY     48  43  81 CALM      30.02R
$$

MSZ003>006-009-014>017-022>024-029>033-037>039-231200-
NORTHEAST MISSISSIPPI

CITY           SKY/WX    TMP DP  RH WIND       PRES   REMARKS
BELMONT        FAIR      46  44  91 CALM      29.99R
COLUMBUS AFB   CLEAR     53  48  83 NW5       29.99R
CORINTH        FAIR      45  41  87 CALM      30.01R
GOLDN TRIANGLE CLEAR     54  45  71 N7        30.00R
STARKVILLE     FAIR      50  48  93 CALM      29.99R
TUPELO         CLEAR     50  42  74 N5        30.00R
$$

MSZ040-058-231200-
CENTRAL MISSISSIPPI

CITY           SKY/WX    TMP DP  RH WIND       PRES   REMARKS
JACKSON INTL   PTCLDY    52  51  97 CALM      29.97S
JACKSON HAWKNS CLEAR     57  54  89 CALM      29.97S
MERIDIAN KEY   CLEAR     52  52 100 CALM      29.97R
MERIDIAN NAS   MOCLDY    56  54  93 NW5       29.96R
RAYMOND        HAZE      50  46  87 CALM      29.97S VSB<1/4
VICKSBURG      FOG       55  55 100 CALM      29.97S VSB 1/4
$$

MSZ059>079-231200-
SOUTH MISSISSIPPI

CITY           SKY/WX    TMP DP  RH WIND       PRES   REMARKS
BROOKHAVEN     FAIR      57  57 100 CALM      29.98R FOG
HATTIESBURG    CLEAR     56  55  97 CALM      29.95S
MCCOMB         CLEAR     60  57  89 N5        29.96R
NATCHEZ        CLEAR     54  52  94 CALM      29.97R
PINE BELT      CLEAR     59  54  82 N6        29.96R
$$

MSZ080>082-231200-
COASTAL MISSISSIPPI

CITY           SKY/WX    TMP DP  RH WIND       PRES   REMARKS
BILOXI         CLEAR     62  62 100 N1        29.93R
PASCAGOULA     FOG       60  60 100 N3        29.93R VSB 1/4
GULFPORT       CLEAR     61  58  90 N5        29.93R
$$



USA.gov is the U.S. government's official web portal to all federal, state and local government web resources and services.